SCP
0 0 0 0 0 0 0 0 0 1 1 1 1 1 1 1 0 0 0 0 0 0 0 0 0 0 0 0 0 0 0 0 0 0 0 0 0 0 0 0 0 0 0
0 0 0 0 0 0 0 0 0 1 1 1 1 1 1 0 0 0 0 0 0 0 0 0 0 0 0 0 0 0 0 0 0 0 0 0 0 0 0 0 0 0 0
0 0 0 0 0 0 0 0 1 1 1 2 1 1 1 0 0 0 0 0 0 0 0 0 0 0 0 0 0 0 0 0 0 0 0 0 0 0 0 0 0 0 0
0 0 0 0 0 1 1 1 1 2 2 1 1 1 1 0 0 0 0 0 0 0 0 0 0 0 0 0 0 0 0 0 0 0 0 0 0 0 0 0 0 0 0
2 1 1 1 2 2 2 2 2 2 1 1 1 1 1 0 0 0 0 0 0 0 0 0 0 0 0 0 0 0 0 0 0 0 0 0 0 0 0 0 0 0 0
3 2 3 4 4 3 3 2 1 1 2 1 1 1 0 0 0 0 0 0 0 0 0 0 0 0 0 0 0 0 0 0 0 0 0 0 0 0 0 0 0 0 0
1 2 1 2 2 2 2 1 1 2 1 1 0 0 0 0 0 0 0 0 0 0 0 0 0 0 0 0 0 0 0 0 0 0 0 0 0 0 0 0 0 0 0
0 2 2 2 1 2 1 1 1 1 1 0 0 0 0 0 0 0 0 0 0 0 0 0 0 0 0 0 0 0 0 0 0 0 0 0 0 0 0 0 0 0 0
0 1 1 1 1 1 1 1 0 0 0 0 0 0 0 0 0 0 0 0 0 0 0 0 0 0 0 0 0 0 0 0 0 0 0 0 0 0 0 0 0 0 0
0 0 1 1 1 1 0 0 0 0 0 0 0 0 0 0 0 0 0 0 0 0 0 0 0 0 0 0 0 0 0 0 0 0 0 0 0 0 0 0 0 0 0
0 0 1 0 0 0 0 0 0 0 0 0 0 0 0 0 0 0 0 0 0 0 0 0 0 0 0 0 0 0 0 0 0 0 0 0 0 0 0 0 0 0 0
0 0 0 0 0 0 0 0 0 0 0 0 0 0 0 0 0 0 0 0 0 0 0 0 0 0 0 0 0 0 0 0 0 0 0 0 0 0 0 0 0 0 0
0 0 0 0 0 0 0 0 0 0 0 0 0 0 0 0 0 0 0 0 0 0 0 0 0 0 -0 0 -0 -0 0 0 0 0 0 0 0 0 0 0 0 0 0
0 0 0 0 0 0 0 0 0 0 0 0 0 0 0 0 0 0 0 0 0 0 0 0 0 0 0 0 0 0 0 0 0 0 0 0 0 0 0 0 0 0 0
0 0 0 0 0 0 0 0 0 0 0 0 0 0 0 0 0 0 0 0 0 0 0 0 0 0 0 0 0 0 0 0 0 0 0 0 0 0 0 0 0 0 0
0 0 0 0 0 0 0 0 0 0 0 0 0 0 0 0 0 0 0 0 -0 -0 0 0 -0 0 0 0 0 0 0 0 0 0 0 0 0 0 0 0 0 0 0
0 0 0 0 0 0 0 0 0 0 0 0 0 0 0 0 0 0 0 0 -0 0 0 0 -0 0 0 0 0 0 0 0 0 0 0 0 0 0 0 0 0 0 0
-0 0 0 0 0 0 0 0 0 0 0 0 0 0 0 0 0 0 0 0 0 0 0 0 0 0 0 0 0 0 0 0 0 0 0 0 0 0 0 0 0 0 0
0 0 0 0 0 0 0 0 0 0 0 0 0 0 0 0 0 0 0 0 0 0 0 0 0 0 0 0 0 0 0 0 0 -0 0 0 0 0 0 0 0 0 0
0 0 0 0 0 0 0 0 0 0 0 0 0 0 0 0 0 0 0 0 0 -0 0 0 0 0 0 0 0 0 0 0 0 0 0 0 0 0 0 0 0 0 0
0 0 0 0 0 0 0 0 0 0 0 0 0 0 0 0 0 0 0 0 0 -0 -0 0 0 0 0 0 0 0 0 0 -0 0 0 0 0 0 0 0 0 0 0
0 0 0 0 0 0 0 0 0 0 0 0 0 0 0 0 0 0 0 0 0 0 0 -0 0 0 0 -0 -0 -0 -0 -0 0 0 0 0 0 0 0 0 0 0 0
0 0 0 0 0 0 0 0 0 0 0 0 0 0 0 0 0 0 0 0 0 0 0 0 0 0 0 0 0 0 0 0 0 0 0 0 0 0 0 0 0 0 0
0 0 0 0 0 0 0 0 0 0 0 0 0 0 0 0 0 0 0 0 0 0 0 0 0 0 0 0 0 0 0 0 0 0 0 0 -0 -0 -0 0 0 0 0
0 0 0 0 0 0 0 0 0 0 0 0 0 0 0 0 0 0 0 0 -0 -0 -0 -0 -0 -0 -0 -0 -0 -0 0 0 0 0 0 0 0 0 0 0 0 0 0
0 0 0 0 0 0 0 0 0 0 0 0 0 0 -0 -0 -0 -0 0 -0 -0 -0 -0 -0 -0 -0 -0 -0 -0 -0 -0 -0 -0 -0 0 0 0 0 0 0 0 0 0
Wind_Speed_500mb
80 77 70 62 64 71 72 74 68 64 59 49 52 45 46 48 47 39 40 35 36 31 33 31 27 27 26 24 25 26 24 23 23 18 16 15 14 15 16 17 18 24 30
57 75 74 69 70 77 74 64 59 54 46 48 50 48 51 54 43 45 37 40 40 35 32 29 29 26 24 22 23 24 23 24 24 20 17 16 15 18 17 21 21 25 30
32 64 71 73 74 77 72 61 56 55 52 53 52 51 56 55 41 41 42 41 36 31 26 27 25 24 22 22 23 23 21 22 25 23 19 19 22 23 26 20 24 28 28
26 43 70 79 76 69 68 62 62 58 57 55 54 52 58 47 46 45 39 40 32 28 30 29 22 19 20 22 23 23 23 24 27 27 24 23 28 28 28 22 27 28 28
24 29 51 63 63 69 62 63 61 58 56 53 51 55 53 49 49 46 43 34 28 30 33 30 23 20 21 24 25 26 26 25 30 33 31 30 35 35 33 28 28 29 30
15 28 33 42 50 58 62 62 60 60 56 52 56 56 51 53 46 43 34 27 29 28 29 27 25 24 24 24 26 28 26 24 31 37 33 35 37 37 35 32 32 33 35
23 19 36 47 54 60 60 57 58 56 51 56 56 57 56 50 44 38 35 26 25 24 23 24 24 25 25 24 26 28 32 26 22 27 26 33 35 36 32 34 34 38 36
24 21 28 43 53 53 50 51 50 52 61 62 62 59 54 48 43 43 35 24 26 23 23 23 23 22 22 24 26 25 22 27 30 28 21 20 23 19 24 27 30 33 32
26 22 36 48 47 45 48 53 58 63 58 64 64 57 49 46 45 43 35 31 29 28 26 25 23 20 19 20 20 23 24 26 28 24 21 20 24 21 24 30 32 39 40
27 15 39 41 42 45 55 62 59 59 69 64 56 49 43 43 44 39 33 30 31 30 28 25 22 19 17 15 18 19 29 27 31 25 27 29 31 31 29 27 25 36 43
23 28 36 41 46 52 64 60 65 68 65 61 53 47 43 41 36 33 30 29 27 26 22 21 20 18 17 18 23 20 24 24 27 22 26 27 31 36 37 33 28 28 36
17 34 39 50 52 59 65 71 68 67 68 60 52 50 46 37 33 31 27 23 22 16 12 17 17 17 18 22 23 19 23 28 33 27 27 33 35 34 33 35 29 24 27
7 35 46 59 63 62 65 73 67 62 61 57 54 48 40 35 31 27 27 28 22 17 14 17 18 19 21 23 23 23 19 20 22 28 34 35 34 29 29 32 28 24 28
15 27 39 71 73 66 61 64 64 62 59 56 49 42 35 31 29 31 31 31 26 19 13 16 21 22 25 28 28 22 13 10 24 29 32 33 28 29 27 28 30 30 27
39 31 21 68 75 72 68 62 55 49 43 42 39 33 30 29 29 27 26 29 24 19 18 20 22 30 38 39 32 26 19 11 22 26 29 30 30 28 29 27 25 25 29
31 60 74 74 73 72 66 61 49 41 33 25 22 16 17 19 30 28 24 23 22 23 23 25 30 41 43 41 34 29 20 15 21 23 26 27 30 29 29 29 26 26 28
38 85 83 74 75 69 61 53 51 41 32 29 27 21 18 30 29 25 22 22 24 24 26 27 33 38 42 41 34 30 21 23 20 23 23 23 20 28 31 30 32 33 33
86 77 73 72 69 60 53 48 44 46 45 41 35 28 25 29 26 21 21 25 28 28 30 29 33 34 32 37 27 27 21 22 22 22 21 20 20 25 25 29 28 29 29
64 69 62 58 56 53 48 44 45 47 48 47 45 39 35 30 24 16 21 21 28 30 31 29 29 30 30 28 25 23 21 20 17 20 22 20 19 25 26 25 22 19 22
56 56 54 55 50 43 39 40 43 45 49 49 49 44 42 33 25 21 20 17 21 23 26 29 31 32 32 30 27 25 19 19 17 20 21 20 18 19 21 23 25 25 25
58 53 51 49 43 38 36 37 36 37 43 46 54 43 35 29 22 29 23 21 19 18 22 26 28 37 34 30 26 22 19 18 19 16 16 17 15 13 11 13 22 24 25
54 54 48 42 39 36 34 34 36 39 42 43 52 42 34 25 31 30 27 17 17 19 23 22 25 27 31 34 29 24 20 18 19 18 17 15 13 12 12 12 15 16 21
47 48 45 42 39 36 34 35 36 39 40 45 45 43 36 32 37 33 26 18 17 19 21 25 26 25 28 36 31 29 22 18 15 17 18 19 18 14 12 12 13 15 16
42 43 42 39 38 37 38 39 40 43 45 48 44 40 38 42 37 33 23 13 23 20 23 24 25 26 24 25 26 26 24 23 20 15 16 17 17 18 19 16 17 18 17
43 44 40 36 37 40 42 43 44 48 48 47 46 46 48 42 35 27 23 21 20 25 25 26 26 24 23 22 19 19 18 18 15 14 13 13 15 12 11 14 14 15 18
47 48 43 37 39 43 45 47 48 51 50 48 48 48 43 38 34 30 27 25 25 24 21 24 25 18 14 20 19 18 17 12 10 9 8 9 8 3 2 6 12 16 15
Wind_Direction_500mb
254 247 240 225 229 228 223 226 228 234 236 238 238 237 223 222 224 216 203 208 201 210 216 229 229 237 239 238 235 236 236 244 252 254 254 250 245 223 210 202 187 194 191
251 241 228 222 228 225 226 225 228 232 236 235 231 225 221 223 220 202 203 205 201 208 222 227 230 226 232 224 228 230 240 245 241 245 249 235 217 199 193 190 189 187 185
265 228 221 222 229 229 226 226 230 228 225 224 219 217 219 220 207 198 210 205 206 212 226 223 221 223 218 224 228 229 240 233 239 240 243 217 185 189 181 172 183 181 178
261 227 215 217 219 225 227 229 225 218 218 211 212 214 216 214 192 201 201 198 203 222 219 205 211 218 223 225 226 233 234 231 238 229 224 213 189 187 190 185 182 176 175
252 225 206 210 212 222 224 219 213 212 208 209 210 205 207 192 190 197 198 199 212 213 206 207 214 225 230 226 230 240 238 231 235 226 219 203 190 186 191 191 184 176 171
264 225 203 187 189 203 207 208 207 203 204 208 201 199 184 190 194 193 196 194 200 204 204 208 222 235 238 234 236 237 239 241 236 220 214 202 187 194 192 188 185 176 161
283 228 219 205 197 200 201 199 202 207 203 196 195 182 186 188 186 189 179 181 183 190 201 217 233 241 237 239 239 242 254 223 219 227 226 201 201 197 192 191 189 186 175
305 225 213 209 198 193 196 203 201 192 195 190 179 181 181 181 179 179 182 193 203 214 222 229 236 234 234 237 242 244 219 224 213 210 209 215 216 210 194 190 195 193 179
270 215 195 194 197 202 203 196 191 186 184 178 173 171 177 178 180 185 189 203 213 220 226 233 230 233 239 237 227 213 215 195 187 187 188 198 210 216 205 193 194 189 175
245 233 205 209 212 213 197 191 183 177 173 165 167 173 175 182 182 191 204 217 219 225 231 226 228 233 215 213 201 206 197 191 190 195 195 194 200 203 201 207 212 199 189
256 223 220 214 212 207 189 182 172 169 165 168 172 175 179 181 189 196 210 219 226 221 218 224 221 210 206 203 200 208 209 198 187 190 198 201 187 187 193 194 200 209 204
244 215 210 207 194 178 172 170 164 165 168 173 176 174 176 182 191 201 214 203 191 191 227 208 203 202 200 193 195 194 190 201 197 200 210 188 182 184 180 184 196 199 220
150 202 203 187 164 162 158 160 164 171 173 172 174 175 178 187 195 195 184 182 186 195 222 215 195 190 189 180 174 163 168 191 206 187 179 179 174 178 185 192 187 185 183
184 129 176 165 160 166 169 167 167 171 174 174 176 180 185 189 189 184 184 179 188 199 224 199 184 187 178 172 157 151 145 161 174 172 172 172 177 179 185 192 194 194 196
178 166 211 174 167 167 171 170 168 172 181 183 183 188 192 194 189 189 191 188 190 199 205 189 185 181 167 161 163 159 155 144 163 175 180 182 183 184 188 192 199 201 206
150 190 197 173 170 170 169 163 169 175 175 178 176 175 177 176 178 176 176 183 189 186 194 183 180 174 168 168 167 167 168 157 167 172 179 188 190 188 192 200 206 208 212
198 179 175 171 171 170 169 170 167 168 165 156 152 147 154 163 165 169 173 174 174 180 187 182 175 172 172 174 177 176 175 166 167 170 172 178 185 198 203 202 207 212 219
183 169 169 172 171 170 173 173 172 168 163 159 155 151 148 159 162 170 173 176 184 188 187 186 182 176 179 179 186 179 178 173 175 181 184 188 196 204 206 206 213 216 221
166 167 165 164 168 170 171 173 173 173 170 166 160 157 150 150 139 142 162 185 184 186 190 185 182 178 170 169 170 172 178 177 192 196 195 199 199 199 205 206 218 223 220
164 164 165 164 164 166 166 170 176 181 178 175 170 170 160 165 166 153 162 165 179 189 190 178 184 180 171 166 173 177 184 188 190 189 189 191 191 193 205 217 224 232 225
156 158 158 158 154 155 165 172 175 179 182 181 174 173 166 166 155 154 147 146 154 166 172 179 183 184 185 188 187 185 179 177 183 178 176 182 181 188 202 223 228 229 228
158 157 157 153 156 161 166 170 172 173 173 174 165 168 163 157 155 149 134 127 147 152 165 171 177 186 203 197 184 174 167 170 182 187 192 203 214 225 229 236 231 224 225
157 156 158 158 154 150 150 155 154 154 159 159 160 160 158 155 156 153 149 148 143 151 154 161 171 167 166 176 183 188 191 196 201 206 208 210 227 234 230 231 227 217 221
161 158 156 157 152 147 148 150 151 154 157 158 158 159 159 158 160 159 161 147 140 150 138 147 149 159 166 179 193 204 210 214 215 220 219 221 222 227 238 246 228 232 236
169 162 155 150 154 156 156 154 153 158 158 159 161 160 159 161 160 160 157 149 152 148 146 145 149 153 157 160 168 173 177 182 179 182 202 223 245 248 234 230 231 239 251
169 164 155 151 158 158 161 158 156 159 161 160 159 158 160 161 163 166 159 156 163 160 160 163 158 162 151 141 141 145 141 162 199 212 258 242 222 202 285 246 209 212 216
Wind_Speed_850mb
80 77 70 62 64 71 72 74 68 64 59 49 52 45 46 48 47 39 40 35 36 31 33 31 27 27 26 24 25 26 24 23 23 18 16 15 14 15 16 17 18 24 30
57 75 74 69 70 77 74 64 59 54 46 48 50 48 51 54 43 45 37 40 40 35 32 29 29 26 24 22 23 24 23 24 24 20 17 16 15 18 17 21 21 25 30
32 64 71 73 74 77 72 61 56 55 52 53 52 51 56 55 41 41 42 41 36 31 26 27 25 24 22 22 23 23 21 22 25 23 19 19 22 23 26 20 24 28 28
26 43 70 79 76 69 68 62 62 58 57 55 54 52 58 47 46 45 39 40 32 28 30 29 22 19 20 22 23 23 23 24 27 27 24 23 28 28 28 22 27 28 28
24 29 51 63 63 69 62 63 61 58 56 53 51 55 53 49 49 46 43 34 28 30 33 30 23 20 21 24 25 26 26 25 30 33 31 30 35 35 33 28 28 29 30
15 28 33 42 50 58 62 62 60 60 56 52 56 56 51 53 46 43 34 27 29 28 29 27 25 24 24 24 26 28 26 24 31 37 33 35 37 37 35 32 32 33 35
23 19 36 47 54 60 60 57 58 56 51 56 56 57 56 50 44 38 35 26 25 24 23 24 24 25 25 24 26 28 32 26 22 27 26 33 35 36 32 34 34 38 36
24 21 28 43 53 53 50 51 50 52 61 62 62 59 54 48 43 43 35 24 26 23 23 23 23 22 22 24 26 25 22 27 30 28 21 20 23 19 24 27 30 33 32
26 22 36 48 47 45 48 53 58 63 58 64 64 57 49 46 45 43 35 31 29 28 26 25 23 20 19 20 20 23 24 26 28 24 21 20 24 21 24 30 32 39 40
27 15 39 41 42 45 55 62 59 59 69 64 56 49 43 43 44 39 33 30 31 30 28 25 22 19 17 15 18 19 29 27 31 25 27 29 31 31 29 27 25 36 43
23 28 36 41 46 52 64 60 65 68 65 61 53 47 43 41 36 33 30 29 27 26 22 21 20 18 17 18 23 20 24 24 27 22 26 27 31 36 37 33 28 28 36
17 34 39 50 52 59 65 71 68 67 68 60 52 50 46 37 33 31 27 23 22 16 12 17 17 17 18 22 23 19 23 28 33 27 27 33 35 34 33 35 29 24 27
7 35 46 59 63 62 65 73 67 62 61 57 54 48 40 35 31 27 27 28 22 17 14 17 18 19 21 23 23 23 19 20 22 28 34 35 34 29 29 32 28 24 28
15 27 39 71 73 66 61 64 64 62 59 56 49 42 35 31 29 31 31 31 26 19 13 16 21 22 25 28 28 22 13 10 24 29 32 33 28 29 27 28 30 30 27
39 31 21 68 75 72 68 62 55 49 43 42 39 33 30 29 29 27 26 29 24 19 18 20 22 30 38 39 32 26 19 11 22 26 29 30 30 28 29 27 25 25 29
31 60 74 74 73 72 66 61 49 41 33 25 22 16 17 19 30 28 24 23 22 23 23 25 30 41 43 41 34 29 20 15 21 23 26 27 30 29 29 29 26 26 28
38 85 83 74 75 69 61 53 51 41 32 29 27 21 18 30 29 25 22 22 24 24 26 27 33 38 42 41 34 30 21 23 20 23 23 23 20 28 31 30 32 33 33
86 77 73 72 69 60 53 48 44 46 45 41 35 28 25 29 26 21 21 25 28 28 30 29 33 34 32 37 27 27 21 22 22 22 21 20 20 25 25 29 28 29 29
64 69 62 58 56 53 48 44 45 47 48 47 45 39 35 30 24 16 21 21 28 30 31 29 29 30 30 28 25 23 21 20 17 20 22 20 19 25 26 25 22 19 22
56 56 54 55 50 43 39 40 43 45 49 49 49 44 42 33 25 21 20 17 21 23 26 29 31 32 32 30 27 25 19 19 17 20 21 20 18 19 21 23 25 25 25
58 53 51 49 43 38 36 37 36 37 43 46 54 43 35 29 22 29 23 21 19 18 22 26 28 37 34 30 26 22 19 18 19 16 16 17 15 13 11 13 22 24 25
54 54 48 42 39 36 34 34 36 39 42 43 52 42 34 25 31 30 27 17 17 19 23 22 25 27 31 34 29 24 20 18 19 18 17 15 13 12 12 12 15 16 21
47 48 45 42 39 36 34 35 36 39 40 45 45 43 36 32 37 33 26 18 17 19 21 25 26 25 28 36 31 29 22 18 15 17 18 19 18 14 12 12 13 15 16
42 43 42 39 38 37 38 39 40 43 45 48 44 40 38 42 37 33 23 13 23 20 23 24 25 26 24 25 26 26 24 23 20 15 16 17 17 18 19 16 17 18 17
43 44 40 36 37 40 42 43 44 48 48 47 46 46 48 42 35 27 23 21 20 25 25 26 26 24 23 22 19 19 18 18 15 14 13 13 15 12 11 14 14 15 18
47 48 43 37 39 43 45 47 48 51 50 48 48 48 43 38 34 30 27 25 25 24 21 24 25 18 14 20 19 18 17 12 10 9 8 9 8 3 2 6 12 16 15
Wind_Direction_850mb
254 247 240 225 229 228 223 226 228 234 236 238 238 237 223 222 224 216 203 208 201 210 216 229 229 237 239 238 235 236 236 244 252 254 254 250 245 223 210 202 187 194 191
251 241 228 222 228 225 226 225 228 232 236 235 231 225 221 223 220 202 203 205 201 208 222 227 230 226 232 224 228 230 240 245 241 245 249 235 217 199 193 190 189 187 185
265 228 221 222 229 229 226 226 230 228 225 224 219 217 219 220 207 198 210 205 206 212 226 223 221 223 218 224 228 229 240 233 239 240 243 217 185 189 181 172 183 181 178
261 227 215 217 219 225 227 229 225 218 218 211 212 214 216 214 192 201 201 198 203 222 219 205 211 218 223 225 226 233 234 231 238 229 224 213 189 187 190 185 182 176 175
252 225 206 210 212 222 224 219 213 212 208 209 210 205 207 192 190 197 198 199 212 213 206 207 214 225 230 226 230 240 238 231 235 226 219 203 190 186 191 191 184 176 171
264 225 203 187 189 203 207 208 207 203 204 208 201 199 184 190 194 193 196 194 200 204 204 208 222 235 238 234 236 237 239 241 236 220 214 202 187 194 192 188 185 176 161
283 228 219 205 197 200 201 199 202 207 203 196 195 182 186 188 186 189 179 181 183 190 201 217 233 241 237 239 239 242 254 223 219 227 226 201 201 197 192 191 189 186 175
305 225 213 209 198 193 196 203 201 192 195 190 179 181 181 181 179 179 182 193 203 214 222 229 236 234 234 237 242 244 219 224 213 210 209 215 216 210 194 190 195 193 179
270 215 195 194 197 202 203 196 191 186 184 178 173 171 177 178 180 185 189 203 213 220 226 233 230 233 239 237 227 213 215 195 187 187 188 198 210 216 205 193 194 189 175
245 233 205 209 212 213 197 191 183 177 173 165 167 173 175 182 182 191 204 217 219 225 231 226 228 233 215 213 201 206 197 191 190 195 195 194 200 203 201 207 212 199 189
256 223 220 214 212 207 189 182 172 169 165 168 172 175 179 181 189 196 210 219 226 221 218 224 221 210 206 203 200 208 209 198 187 190 198 201 187 187 193 194 200 209 204
244 215 210 207 194 178 172 170 164 165 168 173 176 174 176 182 191 201 214 203 191 191 227 208 203 202 200 193 195 194 190 201 197 200 210 188 182 184 180 184 196 199 220
150 202 203 187 164 162 158 160 164 171 173 172 174 175 178 187 195 195 184 182 186 195 222 215 195 190 189 180 174 163 168 191 206 187 179 179 174 178 185 192 187 185 183
184 129 176 165 160 166 169 167 167 171 174 174 176 180 185 189 189 184 184 179 188 199 224 199 184 187 178 172 157 151 145 161 174 172 172 172 177 179 185 192 194 194 196
178 166 211 174 167 167 171 170 168 172 181 183 183 188 192 194 189 189 191 188 190 199 205 189 185 181 167 161 163 159 155 144 163 175 180 182 183 184 188 192 199 201 206
150 190 197 173 170 170 169 163 169 175 175 178 176 175 177 176 178 176 176 183 189 186 194 183 180 174 168 168 167 167 168 157 167 172 179 188 190 188 192 200 206 208 212
198 179 175 171 171 170 169 170 167 168 165 156 152 147 154 163 165 169 173 174 174 180 187 182 175 172 172 174 177 176 175 166 167 170 172 178 185 198 203 202 207 212 219
183 169 169 172 171 170 173 173 172 168 163 159 155 151 148 159 162 170 173 176 184 188 187 186 182 176 179 179 186 179 178 173 175 181 184 188 196 204 206 206 213 216 221
166 167 165 164 168 170 171 173 173 173 170 166 160 157 150 150 139 142 162 185 184 186 190 185 182 178 170 169 170 172 178 177 192 196 195 199 199 199 205 206 218 223 220
164 164 165 164 164 166 166 170 176 181 178 175 170 170 160 165 166 153 162 165 179 189 190 178 184 180 171 166 173 177 184 188 190 189 189 191 191 193 205 217 224 232 225
156 158 158 158 154 155 165 172 175 179 182 181 174 173 166 166 155 154 147 146 154 166 172 179 183 184 185 188 187 185 179 177 183 178 176 182 181 188 202 223 228 229 228
158 157 157 153 156 161 166 170 172 173 173 174 165 168 163 157 155 149 134 127 147 152 165 171 177 186 203 197 184 174 167 170 182 187 192 203 214 225 229 236 231 224 225
157 156 158 158 154 150 150 155 154 154 159 159 160 160 158 155 156 153 149 148 143 151 154 161 171 167 166 176 183 188 191 196 201 206 208 210 227 234 230 231 227 217 221
161 158 156 157 152 147 148 150 151 154 157 158 158 159 159 158 160 159 161 147 140 150 138 147 149 159 166 179 193 204 210 214 215 220 219 221 222 227 238 246 228 232 236
169 162 155 150 154 156 156 154 153 158 158 159 161 160 159 161 160 160 157 149 152 148 146 145 149 153 157 160 168 173 177 182 179 182 202 223 245 248 234 230 231 239 251
169 164 155 151 158 158 161 158 156 159 161 160 159 158 160 161 163 166 159 156 163 160 160 163 158 162 151 141 141 145 141 162 199 212 258 242 222 202 285 246 209 212 216